Ocoee 1 Observed Data For Previous 48 Hours

Caption
Day and Hour Reservoir Elevation (behind dam)* Tailwater Elevation (below dam)* Average Hourly Discharge*
4/22/2018 2 AM EDT 828.78 713.07 0
4/22/2018 3 AM EDT 828.83 713.71 25
4/22/2018 4 AM EDT 828.85 715.96 1,300
4/22/2018 5 AM EDT 828.85 715.97 1,302
4/22/2018 6 AM EDT 828.84 715.97 1,303
4/22/2018 7 AM EDT 828.84 715.95 1,294
4/22/2018 8 AM EDT 828.82 716.07 1,298
4/22/2018 9 AM EDT 828.76 717.80 2,642
4/22/2018 10 AM EDT 828.70 717.81 2,685
4/22/2018 11 AM EDT 828.64 717.81 2,682
4/22/2018 12 PM EDT 828.59 717.84 2,684
4/22/2018 1 PM EDT 828.54 717.82 2,678
4/22/2018 2 PM EDT 828.49 717.81 2,679
4/22/2018 3 PM EDT 828.44 717.83 2,685
4/22/2018 4 PM EDT 828.41 717.83 2,685
4/22/2018 5 PM EDT 828.34 717.83 2,677
4/22/2018 6 PM EDT 828.31 717.83 2,679
4/22/2018 7 PM EDT 828.26 717.82 2,673
4/22/2018 8 PM EDT 828.21 717.83 2,677
4/22/2018 9 PM EDT 828.14 717.85 2,689
4/22/2018 10 PM EDT 828.08 717.80 2,669
4/22/2018 11 PM EDT 827.99 717.81 2,657
4/23/2018 12 AM EDT 828.01 716.01 1,318
4/23/2018 1 AM EDT 827.98 716.00 1,306
4/23/2018 2 AM EDT 828.07 713.12 11
4/23/2018 3 AM EDT 828.14 713.09 0
4/23/2018 4 AM EDT 828.18 713.50 14
4/23/2018 5 AM EDT 828.19 713.77 571
4/23/2018 6 AM EDT 828.22 713.07 0
4/23/2018 7 AM EDT 828.27 713.06 0
4/23/2018 8 AM EDT 828.36 713.76 26
4/23/2018 9 AM EDT 828.39 716.25 1,322
4/23/2018 10 AM EDT 828.29 717.84 2,683
4/23/2018 11 AM EDT 828.23 717.85 2,688
4/23/2018 12 PM EDT 828.20 717.84 2,688
4/23/2018 1 PM EDT 828.13 717.85 2,683
4/23/2018 2 PM EDT 828.18 716.04 1,335
4/23/2018 3 PM EDT 828.21 716.04 1,323
4/23/2018 4 PM EDT 828.23 716.03 1,325
4/23/2018 5 PM EDT 828.27 716.27 1,337
4/23/2018 6 PM EDT 828.24 717.85 2,712
4/23/2018 7 PM EDT 828.22 717.87 2,699
4/23/2018 8 PM EDT 828.19 717.88 2,708
4/23/2018 9 PM EDT 828.15 717.86 2,703
4/23/2018 10 PM EDT 828.12 717.85 2,692
4/23/2018 11 PM EDT 828.11 717.87 2,701
4/24/2018 12 AM EDT 828.10 717.87 2,703
4/24/2018 1 AM EDT 828.09 717.86 2,702
4/24/2018 2 AM EDT 828.10 717.85 2,680
4/24/2018 3 AM EDT 828.08 717.85 2,677
4/24/2018 4 AM EDT 828.10 717.85 2,678
4/24/2018 5 AM EDT 828.14 717.85 2,681
4/24/2018 6 AM EDT 828.22 717.84 2,679
4/24/2018 7 AM EDT 828.38 717.85 2,683
4/24/2018 8 AM EDT 828.58 717.00 1,997
4/24/2018 9 AM EDT 828.76 717.85 2,621
4/24/2018 10 AM EDT 828.92 717.85 2,686
4/24/2018 11 AM EDT 829.06 717.84 2,679
4/24/2018 12 PM EDT 829.13 718.86 3,587
4/24/2018 1 PM EDT 829.14 720.38 4,929
4/24/2018 2 PM EDT 829.10 720.45 5,851
4/24/2018 3 PM EDT 829.07 720.45 5,827
4/24/2018 4 PM EDT 829.09 - 999.00 5,830
4/24/2018 5 PM EDT 829.11 720.48 5,847
4/24/2018 6 PM EDT 829.14 720.49 5,864
4/24/2018 7 PM EDT 829.14 720.50 5,871
4/24/2018 8 PM EDT - 999.00 - 999.00 5,869
4/24/2018 9 PM EDT 829.13 - 999.00 5,870
4/24/2018 10 PM EDT 829.07 720.43 5,837

Elevations are in feet above sea level. Discharges are in cubic feet per second and are reported at the end of the hour.